Tracking 29892 objects as of 21-Nov-2024
HD Live streaming from Space Station
objects crossing your sky now

DMSP 5D-3 F17 DEB

Track DMSP 5D-3 F17 DEB now!
10-day predictions


NORAD ID: 29524
Int'l Code: 2006-050C
Perigee: 804.1 km
Apogee: 813.9 km
Inclination: 98.6 °
Period: 100.9 minutes
Semi major axis: 7179 km
RCS: 0.052 m2 (small)
Launch date: November 4, 2006
Source: United States (US)
Launch site: AIR FORCE WESTERN TEST RANGE (AFWTR)

Note: This is SATELLITE DEBRIS
Your satellite tracking list
Your tracking list is empty




NASA's NSSDC Master Catalog

Two Line Element Set (TLE):
1 29524U 06050C   24324.99674934  .00004132  00000-0  17157-2 0  9992
2 29524  98.5903 343.9342 0006811  46.4549 333.7624 14.26974319933980
Source of the keplerian elements: AFSPC